Regional Weather Roundup
Issued by NWS

Home | Current Version | Previous Version | Graphics & Text | Print | Product List | Glossary On
Versions: 1 2 3 4 5 6 7 8 9 10 11 12 13 14 15 16 17 18 19 20 21 22 23 24 25 26 27 28 29 30 31 32 33 34 35 36 37 38 39 40 41 42 43 44 45 46 47 48 49 50
000
ASUS43 KLOT 022121
RWRIL

ILLINOIS REGIONAL WEATHER ROUNDUP
NATIONAL WEATHER SERVICE CHICAGO/ROMEOVILLE IL
400 PM CDT SUN AUG 02 2015

NOTE: "FAIR" INDICATES FEW OR NO CLOUDS BELOW 12,000 FEET WITH NO
SIGNIFICANT WEATHER AND/OR OBSTRUCTIONS TO VISIBILITY.

* THESE STATIONS ARE NOT UNDER NWS QUALITY CONTROL. THEY ALSO MAY NOT
  REPORT WEATHER SUCH AS PRECIPITATION OR FOG.

ILZ001-002-007-009-015-016-024-022200-
NORTHWEST ILLINOIS

CITY           SKY/WX    TMP DP  RH WIND       PRES   REMARKS
MOLINE         MOSUNNY   90  73  57 SW20G25   29.74F HX  98
STERLING*      SUNNY     90  73  58 W15G28    29.70F HX  98
SAVANNA*       MOSUNNY   91  71  52 SW13G21   29.71F HX  96
$$

ILZ003-004-008-010-011-017-018-022200-
NORTH CENTRAL ILLINOIS

CITY           SKY/WX    TMP DP  RH WIND       PRES   REMARKS
ROCKFORD       MOSUNNY   90  70  51 SW18G29   29.71F HX  95
FREEPORT*      SUNNY     87  72  60 SW22G30   29.71F HX  94
ROCHELLE*      SUNNY     87  73  62 SW15G25   29.73F HX  94
DE KALB*       SUNNY     88  72  59 SW18G32   29.74F HX  94
PERU*          SUNNY     90  68  47 SW21G31   29.77F HX  94
$$

ILZ005-006-012>014-019>023-022200-
NORTHEAST ILLINOIS

CITY           SKY/WX    TMP DP  RH WIND       PRES   REMARKS
CHICAGO-OHARE  PTSUNNY   87  72  60 SW18G25   29.71F HX  93
CHICAGO-MIDWAY CLOUDY    91  69  48 SW17G26   29.72F HX  96
AURORA         MOSUNNY   90  70  51 SW17G30   29.74F HX  95
LANSING*       PTSUNNY   87  68  54 SW17G23   29.76F HX  90
JOLIET*        PTSUNNY   91  72  53 SW15G25   29.75F HX  97
WAUKEGAN       MOSUNNY   88  68  51 SW25G37   29.66F HX  91
DUPAGE AIRPORT PTSUNNY   88  71  57 SW22G29   29.73F HX  94
KANKAKEE*      MOSUNNY   90  72  55 SW18G24   29.80F HX  97
WHEELING       PTSUNNY   89  68  49 SW18G29   29.71F HX  93
MORRIS*        MOSUNNY   89  72  57 SW15G26   29.75F HX  96
ROMEOVILLE*    PTSUNNY   89  67  47 SW20G32   29.74F HX  91
NORTHERLY ISL    N/A     89  67  47 S14         N/A  HX  92
$$

LMZ740>746-022200-
SOUTHERN LAKE MICHIGAN

STATION/POSITION SKY/WX   TEMP    WIND        PRES    VSBY  WAVE
                          AIR SEA DIR/SP/G                  HT/PER
                          (F)     (DEG/KT/KT) (MB)    (MI)  (FT/S)
HARRISON CRIB              85     210/ 26/ 35   N/A
BURNHAM HARBOR             88     210/ 21       N/A
CALUMET HARBOR             88     220/  9/ 16   N/A
BURNS HARBOR               88     220/ 23     1007.8F
MICHIGAN CITY              86     190/ 18/ 21   N/A
MICHIGAN CITY 6N           82 74  240/ 14/ 19   N/A           4/ 4
ST. JOSEPH                 80 74  260/ 17/ 19   N/A           3/ 4
$$

ILZ025>027-034>036-040-047-049-050-058-095>099-022200-
WEST-CENTRAL ILLINOIS

CITY           SKY/WX    TMP DP  RH WIND       PRES   REMARKS
QUINCY         SUNNY     90  72  55 SW13      29.84F HX  97
GALESBURG*     MOSUNNY   88  73  61 SW16G23   29.79F HX  96
MACOMB*        MOSUNNY   89  73  58 SW15G21   29.83F HX  96
JACKSONVILLE*  MOSUNNY   92  71  50 SW10G17   29.85F HX  98
PITTSFIELD*    SUNNY     90  68  47 SW13G18   29.87F HX  94
$$

ILZ028>032-037-038-041>044-048-051>054-059>061-022200-
CENTRAL ILLINOIS

CITY           SKY/WX    TMP DP  RH WIND       PRES   REMARKS
PONTIAC        SUNNY     89  75  64 SW14G24   29.80F HX  98
BLOOMINGTON    SUNNY     86  74  67 SW12      29.84F HX  94
DECATUR        SUNNY     92  69  47 SW15      29.85F HX  97
PEORIA         SUNNY     93  69  45 W15G24    29.80F HX  98
LACON*         SUNNY     89  70  53 SW15G23   29.77F HX  94
LINCOLN*       MOSUNNY   92  71  49 SW8       29.82F HX  99
SPRINGFIELD    SUNNY     91  72  53 SW9       29.84F HX  98
TAYLORVILLE    MOSUNNY   88  70  55 SW10G16   29.86F HX  92
$$

ILZ033-039-045-046-055>057-062-063-022200-
EAST-CENTRAL ILLINOIS

CITY           SKY/WX    TMP DP  RH WIND       PRES   REMARKS
CHAMPAIGN      MOSUNNY   89  71  55 SW7       29.86F HX  95
DANVILLE*      MOSUNNY   86  71  61 SW12G18   29.83F HX  92
RANTOUL*       SUNNY    N/A N/A N/A SW14G22   29.85F
MATTOON        SUNNY     89  65  44 SW8       29.86F HX  91
PARIS*         MOSUNNY   89  71  54 SW12      29.87F HX  94
$$

ILZ079-100>102-022200-
SOUTHWEST ILLINOIS

CITY           SKY/WX    TMP DP  RH WIND       PRES   REMARKS
ALTON          MOSUNNY   90  68  48 SW8       29.87  HX  93
BELLEVILLE     SUNNY     93  73  51 SW8       29.86F HX 101
CAHOKIA*       MOSUNNY   95  65  37 SW7       29.86F HX  97
SPARTA*        MOSUNNY   90  69  50 SW9       29.90F HX  95
$$

ILZ064>066-069>071-074>076-080>082-084>086-088>090-092>094-022200-
SOUTH-CENTRAL ILLINOIS

CITY           SKY/WX    TMP DP  RH WIND       PRES   REMARKS
CARBONDALE     MOSUNNY   90  72  55 SW8       29.90F HX  97
CAIRO*         MOSUNNY   89  71  55 S6        29.91F HX  94
EFFINGHAM*     SUNNY     92  61  35 SW12      29.89F HX  92
MARION         PTSUNNY   90  72  55 SW7       29.92F HX  96
MT. VERNON     MOSUNNY   93  70  46 S12       29.89F HX  99
CENTRALIA*     MOSUNNY   87  69  53 SW7       29.89F HX  91
SALEM*         MOSUNNY   92  69  47 SW10      29.88F HX  97
METROPOLIS*    MOSUNNY   89  74  62 S6        29.92F HX  98
$$

ILZ067-068-072-073-078-083-087-091-022200-
SOUTHEAST ILLINOIS

CITY           SKY/WX    TMP DP  RH WIND       PRES   REMARKS
LAWRENCEVILLE  SUNNY     90  69  50 SW12      29.89F HX  94
FLORA*         SUNNY     90  69  50 SW10      29.89S HX  94
FAIRFIELD*     MOSUNNY   89  73  58 S7        29.88F HX  96
HARRISBURG*    MOSUNNY   89  72  56 SW7       29.92S HX  95
ROBINSON*      SUNNY     88  71  56 S8        29.89S HX  94
CARMI*         SUNNY     88  69  53 S8        29.90F HX  92
$$

ABBREVIATIONS USED IN REMARKS
   TC - TEMPERATURE IN CELSIUS
  WCI - WIND CHILL INDEX
   HX - HEAT INDEX
  VSB - VISIBILITY
$$



USA.gov is the U.S. government's official web portal to all federal, state and local government web resources and services.